Nogales, AZ

11:10 PM MST on June 22, 2017 (GMT -0700)
Nogales International

Weather History for KOLS - December, 2012

Change the Weather History Date:

Tuesday, December 25, 2012

  Actual Average (KFHU) Record (KFHU)
Temperature  
Mean Temperature 46 °F -  
Max Temperature 57 °F 57 °F 79 °F (1983)
Min Temperature 35 °F 35 °F 24 °F (1982)
Degree Days  
Heating Degree Days 19    
Moisture  
Dew Point 25 °F    
Average Humidity 54    
Maximum Humidity 86    
Minimum Humidity 15    
Precipitation  
Precipitation 0.00 in - - ()
Sea Level Pressure  
Sea Level Pressure 29.97 in    
Wind  
Wind Speed 3 mph (SE)    
Max Wind Speed 7 mph    
Max Gust Speed -    
Visibility 10 miles    
Events      
Averages and records for this station are not official NWS values.
T = Trace of Precipitation, MM = Missing Value Source: NWS Daily Summary

Daily Weather History Graph

Daily Weather History Graph

Search for Another Location

Airport or City:

Trip Planner

Search our weather history database for the weather conditions in past years. The results will help you decide how hot, cold, wet, or windy it might be!

Date:

Astronomy

Dec. 25, 2012 Rise Set
Actual Time 7:20 AM MST 5:27 PM MST
Civil Twilight 6:53 AM MST 5:53 PM MST
Nautical Twilight 6:23 AM MST 6:24 PM MST
Astronomical Twilight 5:53 AM MST 6:54 PM MST
Moon 3:35 PM MST (12/25) 4:58 AM MST (12/25)
Length of Visible Light 11h 00m
Length of Day
10h 06m
Waxing Gibbous, 94% of the Moon is Illuminated
Dec 25
Waxing Gibbous
Dec 28
Full
Jan 4
Last Quarter
Jan 11
New
Jan 18
First Quarter

Hourly Weather History & Observations

Time (MST) Temp. Windchill Dew Point Humidity Pressure Visibility Wind Dir Wind Speed Gust Speed Precip Events Conditions
12:54 AM 39.0 °F 36.8 °F 34.0 °F 82% 29.94 in 10.0 mi Variable 3.5 mph - N/A   Clear
1:54 AM 37.9 °F - 33.1 °F 83% 29.95 in 10.0 mi Calm Calm - N/A   Clear
2:54 AM 37.0 °F 31.6 °F 33.1 °F 86% 29.96 in 10.0 mi East 6.9 mph - N/A   Clear
3:54 AM 37.0 °F 32.4 °F 33.1 °F 86% 29.95 in 10.0 mi East 5.8 mph - N/A   Clear
4:54 AM 37.9 °F 34.4 °F 33.1 °F 83% 29.94 in 10.0 mi NE 4.6 mph - N/A   Clear
5:54 AM 36.0 °F 30.3 °F 32.0 °F 86% 29.97 in 10.0 mi SSE 6.9 mph - N/A   Clear
6:54 AM 35.1 °F 31.0 °F 30.9 °F 85% 29.99 in 10.0 mi East 4.6 mph - N/A   Clear
7:54 AM 37.9 °F 35.5 °F 33.1 °F 83% 30.00 in 10.0 mi East 3.5 mph - N/A   Clear
8:54 AM 39.0 °F 35.7 °F 34.0 °F 82% 30.01 in 10.0 mi South 4.6 mph - N/A   Clear
9:54 AM 46.9 °F - 37.0 °F 68% 30.02 in 10.0 mi South 4.6 mph - N/A   Clear
10:54 AM 50.0 °F - 26.1 °F 39% 30.04 in 10.0 mi Calm Calm - N/A   Clear
11:54 AM 53.1 °F - 21.9 °F 30% 30.01 in 10.0 mi Calm Calm - N/A   Clear
12:54 PM 54.0 °F - 10.0 °F 17% 29.97 in 10.0 mi Variable 5.8 mph - N/A   Clear
1:54 PM 55.9 °F - 12.0 °F 18% 29.94 in 10.0 mi West 6.9 mph - N/A   Clear
2:54 PM 57.0 °F - 10.0 °F 15% 29.93 in 10.0 mi WNW 5.8 mph - N/A   Clear
3:54 PM 57.0 °F - 10.0 °F 15% 29.92 in 10.0 mi WSW 4.6 mph - N/A   Clear
4:54 PM 54.0 °F - 12.9 °F 20% 29.93 in 10.0 mi Calm Calm - N/A   Clear
5:54 PM 51.1 °F - 21.0 °F 31% 29.94 in 10.0 mi Calm Calm - N/A   Clear
6:54 PM 48.0 °F - 21.9 °F 36% 29.96 in 10.0 mi West 3.5 mph - N/A   Clear
7:54 PM 46.9 °F - 23.0 °F 39% 29.96 in 10.0 mi WNW 3.5 mph - N/A   Clear
8:54 PM 45.0 °F - 24.1 °F 44% 29.97 in 10.0 mi Calm Calm - N/A   Clear
9:54 PM 39.9 °F - 26.1 °F 58% 29.96 in 10.0 mi Calm Calm - N/A   Clear
10:54 PM 39.9 °F - 25.0 °F 55% 29.97 in 10.0 mi Calm Calm - N/A   Clear
11:54 PM 39.9 °F 37.8 °F 25.0 °F 55% 29.96 in 10.0 mi East 3.5 mph - N/A   Clear